Miscellaneous Local Product
Issued by NWS North Platte, NE

Home | Current Version | Previous Version | Text Only | Print | Product List | Glossary On
Versions: 1 2 3 4 5 6 7 8 9 10 11 12 13 14 15 16 17 18 19 20 21 22 23 24 25 26 27 28 29 30 31 32 33 34 35 36 37 38 39 40 41 42 43 44 45 46 47 48 49 50
000
AXUS43 KLBF 291910
MISLBF


WESTERN AND NORTH CENTRAL NEBRASKA HOURLY WEATHER ROUNDUP
NATIONAL WEATHER SERVICE NORTH PLATTE NE
200 PM CDT SUN MAY 29 2016

NOTE: "FAIR" INDICATES FEW OR NO CLOUDS BELOW 12,000 FEET WITH NO
SIGNIFICANT WEATHER AND/OR OBSTRUCTIONS TO VISIBILITY.

NOTE: STATIONS NOT REPORTING VARIABLES SUCH AS SKY/WEATHER OR
PRESSURE ARE PROVIDED BY RAWS AND APRS NETWORKS AND ARE NOT UNDER
NATIONAL WEATHER SERVICE QUALITY CONTROL.

...OBSERVATIONS IN AND NEAR THE EASTERN PANHANDLE OF NEBRASKA...

CITY           SKY/WX    TMP DP  RH WIND       PRES   REMARKS
PINE RIDGE     SUNNY     77  49  37 S10G17    30.05F
CHADRON        SUNNY     76  48  37 VRB3      30.05F
ALLIANCE       SUNNY     74  48  39 SW8       30.07F
SIDNEY         SUNNY     77  43  29 S8        30.11F
CRESCENT LAKE    N/A     76  47  35 SW8         N/A
BIG SPRINGS      N/A     78  52  40 S3          N/A
$$

...OBSERVATIONS IN NORTHERN NEBRASKA AND FAR SOUTHERN SOUTH DAKOTA...

CITY           SKY/WX    TMP DP  RH WIND       PRES   REMARKS
WINNER         FAIR      77  52  41 E7        30.06F
VALENTINE      MOSUNNY   74  48  39 SE5       30.08F
THEDFORD       SUNNY     79  51  38 SW13      30.08F
AINSWORTH      MOSUNNY   74  51  44 S6        30.09F
O`NEILL        SUNNY     76  55  48 CALM      30.08F
ORD            SUNNY     80  52  37 VRB3      30.06F
BROKEN BOW     SUNNY     78  57  48 S7        30.08F
BUTTE            N/A     74  55  50 MISG        N/A
CHAMBERS         N/A     84  56  38 W3          N/A
EWING            N/A     77  62  59 CALM        N/A
$$

...OBSERVATIONS IN SOUTHWEST NEBRASKA AND FAR NORTHEAST COLORADO...

CITY           SKY/WX    TMP DP  RH WIND       PRES   REMARKS
WRAY           FAIR      81  46  30 CALM      30.08F
IMPERIAL       SUNNY     78  53  41 MISG      30.07F
OGALLALA       SUNNY     77  50  38 S7        30.06F
NORTH PLATTE   SUNNY     79  56  45 SE5       30.07F
MCCOOK         SUNNY     81  56  42 SW7       30.06F
LEXINGTON      SUNNY     78  55  43 CALM      30.07F
PAXTON           N/A     77  56  47 S5          N/A
STAPLETON        N/A     81  55  40 CALM        N/A
GOTHENBURG       N/A     79  52  38 CALM        N/A
CALLAWAY         N/A     76  60  58 SE6         N/A
$$

...OBSERVATIONS IN CENTRAL LINCOLN COUNTY AREA...

CITY           SKY/WX    TMP DP  RH WIND       PRES   REMARKS
N.P. AIRPORT   SUNNY     79  56  45 SE5       30.07F
N.P. DOWNTOWN    N/A     80  54  40 E3          N/A
N.P. SOUTHEAST   N/A     81  54  38 CALM        N/A
N.P. HILLCREST   N/A     78  55  44 SE5         N/A
$$

...SOME OBSERVATIONS FROM AROUND THE REGION...

CITY           SKY/WX    TMP DP  RH WIND       PRES   REMARKS
DENVER         MOSUNNY   75  42  30 E5        30.12F
LARAMIE        CLOUDY    64  30  27 NE5       30.20F
CHEYENNE       PTSUNNY   69  35  28 SW7       30.16F
SCOTTSBLUFF    SUNNY     78  41  26 W5        30.08F
RAPID CITY     SUNNY     72  50  45 S9        30.06F
BISMARCK       SUNNY     76  42  29 NW9       30.01F
PIERRE         SUNNY     75  52  44 VRB5      30.04F
SIOUX FALLS    MOSUNNY   76  55  48 NW12      30.06S
OMAHA          MOSUNNY   82  58  43 W5        30.06F
GRAND ISLAND   SUNNY     80  53  39 VRB3      30.08F
KANSAS CITY    MOSUNNY   83  57  41 VRB3      30.10F
WICHITA        CLOUDY    85  62  46 W6        30.10S
OKLAHOMA CITY  MOSUNNY   86  58  38 SW8       30.11F
DALLAS         PTSUNNY   87  66  49 E6        30.06F
AMARILLO       CLOUDY    79  58  48 S22       30.10F
DODGE CITY     MOSUNNY   77  60  55 S17G25    30.11F
HAYS           CLOUDY    82  61  47 S14       30.07F
GOODLAND       SUNNY     80  55  42 S14G26    30.08F
$$




USA.gov is the U.S. government's official web portal to all federal, state and local government web resources and services.